Time,TemperatureF,DewpointF,PressureIn,WindDirection,WindDirectionDegrees,WindSpeedMPH,WindSpeedGustMPH,Humidity,HourlyPrecipIn,Conditions,Clouds,dailyrainin,SoftwareType,DateUTC
2013-05-01 00:04:00,42.5,33.0,25.00,NNE,30,0.0,-999.0,68,-99.99,,,0.00,weatherlink.com 1.10,2013-05-01 04:04:00,
2013-05-01 00:19:00,41.9,32.0,25.00,NNE,30,0.0,-999.0,69,-99.99,,,0.00,weatherlink.com 1.10,2013-05-01 04:19:00,
2013-05-01 00:34:00,41.3,33.0,25.00,NNE,30,0.0,-999.0,72,-99.99,,,0.00,weatherlink.com 1.10,2013-05-01 04:34:00,
2013-05-01 00:49:00,40.9,33.0,25.00,NNE,30,0.0,-999.0,73,-99.99,,,0.00,weatherlink.com 1.10,2013-05-01 04:49:00,
2013-05-01 01:04:00,40.4,33.0,25.00,NNE,30,0.0,-999.0,74,-99.99,,,0.00,weatherlink.com 1.10,2013-05-01 05:04:00,
2013-05-01 01:19:00,40.3,33.0,21.77,NNE,30,0.0,-999.0,76,-99.99,,,0.00,weatherlink.com 1.10,2013-05-01 05:19:00,
2013-05-01 01:34:00,39.8,33.0,0.00,NNE,30,0.0,-999.0,76,-99.99,,,0.00,weatherlink.com 1.10,2013-05-01 05:34:00,
2013-05-01 01:49:00,39.4,33.0,0.00,NNE,30,0.0,-999.0,78,-99.99,,,0.00,weatherlink.com 1.10,2013-05-01 05:49:00,
2013-05-01 02:04:00,38.9,33.0,0.00,NNE,30,0.0,-999.0,79,-99.99,,,0.00,weatherlink.com 1.10,2013-05-01 06:04:00,
2013-05-01 02:19:00,38.4,33.0,0.00,NNE,30,0.0,-999.0,80,-99.99,,,0.00,weatherlink.com 1.10,2013-05-01 06:19:00,
2013-05-01 02:34:00,38.0,33.0,0.00,NNE,30,0.0,-999.0,81,-99.99,,,0.00,weatherlink.com 1.10,2013-05-01 06:34:00,
2013-05-01 02:49:00,37.7,33.0,0.00,NNE,30,0.0,-999.0,82,-99.99,,,0.00,weatherlink.com 1.10,2013-05-01 06:49:00,
2013-05-01 03:04:00,37.3,33.0,0.00,NNE,30,0.0,-999.0,83,-99.99,,,0.00,weatherlink.com 1.10,2013-05-01 07:04:00,
2013-05-01 03:19:00,36.7,32.0,24.80,NNE,30,0.0,-999.0,84,-99.99,,,0.00,weatherlink.com 1.10,2013-05-01 07:19:00,
2013-05-01 03:34:00,36.2,32.0,24.80,NNE,30,0.0,-999.0,84,-99.99,,,0.00,weatherlink.com 1.10,2013-05-01 07:34:00,
2013-05-01 03:49:00,35.7,32.0,24.80,NNE,30,0.0,-999.0,85,-99.99,,,0.00,weatherlink.com 1.10,2013-05-01 07:49:00,
2013-05-01 04:04:00,35.5,31.0,24.80,NNE,30,0.0,-999.0,85,-99.99,,,0.00,weatherlink.com 1.10,2013-05-01 08:04:00,
2013-05-01 04:19:00,35.2,31.0,24.80,NNE,30,0.0,-999.0,85,-99.99,,,0.00,weatherlink.com 1.10,2013-05-01 08:19:00,
2013-05-01 04:34:00,34.7,31.0,24.80,NNE,30,0.0,-999.0,86,-99.99,,,0.00,weatherlink.com 1.10,2013-05-01 08:34:00,
2013-05-01 04:49:00,34.4,31.0,24.80,NNE,30,0.0,-999.0,86,-99.99,,,0.00,weatherlink.com 1.10,2013-05-01 08:49:00,
2013-05-01 05:04:00,34.0,31.0,24.80,NNE,30,0.0,-999.0,87,-99.99,,,0.00,weatherlink.com 1.10,2013-05-01 09:04:00,
2013-05-01 05:19:00,33.9,31.0,24.80,NNE,30,0.0,-999.0,87,-99.99,,,0.00,weatherlink.com 1.10,2013-05-01 09:19:00,
2013-05-01 05:34:00,33.9,31.0,24.80,NNE,30,0.0,-999.0,88,-99.99,,,0.00,weatherlink.com 1.10,2013-05-01 09:34:00,
2013-05-01 05:49:00,33.5,30.0,24.80,NNE,30,0.0,-999.0,87,-99.99,,,0.00,weatherlink.com 1.10,2013-05-01 09:49:00,
2013-05-01 06:04:00,33.3,30.0,24.80,NNE,30,0.0,-999.0,88,-99.99,,,0.00,weatherlink.com 1.10,2013-05-01 10:04:00,
2013-05-01 06:19:00,33.7,31.0,24.80,NNE,30,0.0,-999.0,89,-99.99,,,0.00,weatherlink.com 1.10,2013-05-01 10:19:00,
2013-05-01 06:34:00,34.4,32.0,24.80,NNE,30,0.0,-999.0,89,-99.99,,,0.00,weatherlink.com 1.10,2013-05-01 10:34:00,
2013-05-01 06:49:00,34.8,32.0,24.80,NNE,30,0.0,-999.0,89,-99.99,,,0.00,weatherlink.com 1.10,2013-05-01 10:49:00,
2013-05-01 07:04:00,36.5,34.0,24.80,NNE,30,0.0,-999.0,89,-99.99,,,0.00,weatherlink.com 1.10,2013-05-01 11:04:00,
2013-05-01 07:19:00,40.3,37.0,24.80,NNE,30,0.0,-999.0,88,-99.99,,,0.00,weatherlink.com 1.10,2013-05-01 11:19:00,
2013-05-01 07:34:00,44.4,39.0,24.80,NNE,30,0.0,-999.0,82,-99.99,,,0.00,weatherlink.com 1.10,2013-05-01 11:34:00,
2013-05-01 07:49:00,47.7,40.0,24.80,NNE,30,0.0,-999.0,74,-99.99,,,0.00,weatherlink.com 1.10,2013-05-01 11:49:00,
2013-05-01 08:04:00,50.6,39.0,24.80,NNE,30,0.0,-999.0,65,-99.99,,,0.00,weatherlink.com 1.10,2013-05-01 12:04:00,
2013-05-01 08:19:00,52.2,38.0,24.80,NNE,26,0.0,-999.0,58,-99.99,,,0.00,weatherlink.com 1.10,2013-05-01 12:19:00,
2013-05-01 08:34:00,54.4,39.0,24.80,NNE,25,0.0,-999.0,57,-99.99,,,0.00,weatherlink.com 1.10,2013-05-01 12:34:00,
2013-05-01 08:49:00,57.4,38.0,24.80,NNE,17,0.0,-999.0,48,-99.99,,,0.00,weatherlink.com 1.10,2013-05-01 12:49:00,
2013-05-01 09:04:00,58.2,37.0,24.80,NNE,18,0.0,-999.0,46,-99.99,,,0.00,weatherlink.com 1.10,2013-05-01 13:04:00,
2013-05-01 09:19:00,60.4,38.0,24.80,NNW,348,0.0,-999.0,43,-99.99,,,0.00,weatherlink.com 1.10,2013-05-01 13:19:00,
2013-05-01 09:34:00,62.6,37.0,24.80,North,355,0.0,-999.0,39,-99.99,,,0.00,weatherlink.com 1.10,2013-05-01 13:34:00,
2013-05-01 09:49:00,64.0,38.0,24.80,NE,41,4.0,-999.0,38,-99.99,,,0.00,weatherlink.com 1.10,2013-05-01 13:49:00,
2013-05-01 10:04:00,64.1,36.0,24.80,North,360,0.0,-999.0,36,-99.99,,,0.00,weatherlink.com 1.10,2013-05-01 14:04:00,
2013-05-01 10:19:00,64.7,35.0,24.80,NE,54,0.0,-999.0,33,-99.99,,,0.00,weatherlink.com 1.10,2013-05-01 14:19:00,
2013-05-01 10:34:00,66.2,36.0,24.80,NE,36,0.0,-999.0,33,-99.99,,,0.00,weatherlink.com 1.10,2013-05-01 14:34:00,
2013-05-01 10:49:00,67.0,36.0,24.80,NNE,19,0.0,-999.0,32,-99.99,,,0.00,weatherlink.com 1.10,2013-05-01 14:49:00,
2013-05-01 11:04:00,66.9,37.0,24.80,NNW,338,1.0,-999.0,33,-99.99,,,0.00,weatherlink.com 1.10,2013-05-01 15:04:00,
2013-05-01 11:19:00,68.2,37.0,24.80,SE,141,3.0,-999.0,32,-99.99,,,0.00,weatherlink.com 1.10,2013-05-01 15:19:00,
2013-05-01 11:34:00,68.7,37.0,24.80,SE,141,0.0,-999.0,31,-99.99,,,0.00,weatherlink.com 1.10,2013-05-01 15:34:00,
2013-05-01 11:49:00,68.7,38.0,24.80,NE,44,1.0,-999.0,33,-99.99,,,0.00,weatherlink.com 1.10,2013-05-01 15:49:00,
2013-05-01 12:04:00,68.9,37.0,24.80,SSE,161,6.0,-999.0,31,-99.99,,,0.00,weatherlink.com 1.10,2013-05-01 16:04:00,
2013-05-01 12:19:00,69.1,37.0,24.80,South,178,0.0,-999.0,31,-99.99,,,0.00,weatherlink.com 1.10,2013-05-01 16:19:00,
2013-05-01 12:34:00,70.1,40.0,24.80,North,360,1.0,-999.0,34,-99.99,,,0.00,weatherlink.com 1.10,2013-05-01 16:34:00,
2013-05-01 12:49:00,70.4,40.0,22.68,SSE,155,0.0,-999.0,33,-99.99,,,0.00,weatherlink.com 1.10,2013-05-01 16:49:00,
2013-05-01 13:04:00,70.0,40.0,21.62,South,173,0.0,-999.0,34,-99.99,,,0.00,weatherlink.com 1.10,2013-05-01 17:04:00,
2013-05-01 13:19:00,70.0,41.0,22.68,SSE,149,0.0,-999.0,35,-99.99,,,0.00,weatherlink.com 1.10,2013-05-01 17:19:00,
2013-05-01 13:34:00,69.7,40.0,23.75,South,178,0.0,-999.0,34,-99.99,,,0.00,weatherlink.com 1.10,2013-05-01 17:34:00,
2013-05-01 13:49:00,70.1,38.0,23.75,SE,131,8.0,-999.0,31,-99.99,,,0.00,weatherlink.com 1.10,2013-05-01 17:49:00,
2013-05-01 14:04:00,68.7,37.0,20.57,SSE,155,4.0,-999.0,31,-99.99,,,0.00,weatherlink.com 1.10,2013-05-01 18:04:00,
2013-05-01 14:19:00,69.0,40.0,20.57,SSE,158,0.0,-999.0,35,-99.99,,,0.00,weatherlink.com 1.10,2013-05-01 18:19:00,
2013-05-01 14:34:00,69.4,40.0,0.00,East,92,2.0,-999.0,34,-99.99,,,0.00,weatherlink.com 1.10,2013-05-01 18:34:00,
2013-05-01 14:49:00,69.2,38.0,0.00,SE,146,1.0,-999.0,32,-99.99,,,0.00,weatherlink.com 1.10,2013-05-01 18:49:00,
2013-05-01 15:04:00,68.6,38.0,0.00,East,95,6.0,-999.0,33,-99.99,,,0.00,weatherlink.com 1.10,2013-05-01 19:04:00,
2013-05-01 15:19:00,68.4,37.0,0.00,SE,135,3.0,-999.0,32,-99.99,,,0.00,weatherlink.com 1.10,2013-05-01 19:19:00,
2013-05-01 15:34:00,68.2,38.0,0.00,ESE,110,0.0,-999.0,33,-99.99,,,0.00,weatherlink.com 1.10,2013-05-01 19:34:00,
2013-05-01 15:49:00,67.3,37.0,0.00,ESE,117,0.0,-999.0,33,-99.99,,,0.00,weatherlink.com 1.10,2013-05-01 19:49:00,
2013-05-01 16:04:00,67.3,37.0,0.00,SSE,159,0.0,-999.0,33,-99.99,,,0.00,weatherlink.com 1.10,2013-05-01 20:04:00,
2013-05-01 16:19:00,66.8,37.0,0.00,SE,144,0.0,-999.0,33,-99.99,,,0.00,weatherlink.com 1.10,2013-05-01 20:19:00,
2013-05-01 16:34:00,66.4,36.0,25.00,SE,140,0.0,-999.0,33,-99.99,,,0.00,weatherlink.com 1.10,2013-05-01 20:34:00,
2013-05-01 16:49:00,66.8,37.0,25.00,SE,142,2.0,-999.0,33,-99.99,,,0.00,weatherlink.com 1.10,2013-05-01 20:49:00,
2013-05-01 17:04:00,66.3,37.0,25.00,East,91,0.0,-999.0,34,-99.99,,,0.00,weatherlink.com 1.10,2013-05-01 21:04:00,
2013-05-01 17:19:00,65.8,36.0,25.00,SSE,150,0.0,-999.0,33,-99.99,,,0.00,weatherlink.com 1.10,2013-05-01 21:19:00,
2013-05-01 17:34:00,65.4,35.0,25.00,SE,144,1.0,-999.0,33,-99.99,,,0.00,weatherlink.com 1.10,2013-05-01 21:34:00,
2013-05-01 17:49:00,65.2,35.0,25.00,SE,124,0.0,-999.0,33,-99.99,,,0.00,weatherlink.com 1.10,2013-05-01 21:49:00,
2013-05-01 18:04:00,64.7,35.0,25.00,South,176,2.0,-999.0,33,-99.99,,,0.00,weatherlink.com 1.10,2013-05-01 22:04:00,
2013-05-01 18:19:00,63.4,34.0,25.00,ESE,113,0.0,-999.0,34,-99.99,,,0.00,weatherlink.com 1.10,2013-05-01 22:19:00,
2013-05-01 18:34:00,62.6,34.0,25.00,SSW,192,1.0,-999.0,35,-99.99,,,0.00,weatherlink.com 1.10,2013-05-01 22:34:00,
2013-05-01 18:49:00,61.8,34.0,25.00,ESE,121,0.0,-999.0,36,-99.99,,,0.00,weatherlink.com 1.10,2013-05-01 22:49:00,
2013-05-01 19:04:00,61.2,35.0,25.00,SE,142,0.0,-999.0,37,-99.99,,,0.00,weatherlink.com 1.10,2013-05-01 23:04:00,
2013-05-01 19:19:00,60.3,34.0,25.00,SE,141,0.0,-999.0,38,-99.99,,,0.00,weatherlink.com 1.10,2013-05-01 23:19:00,
2013-05-01 19:34:00,59.0,34.0,25.00,SE,141,0.0,-999.0,39,-99.99,,,0.00,weatherlink.com 1.10,2013-05-01 23:34:00,
2013-05-01 19:49:00,57.5,34.0,25.00,SE,141,0.0,-999.0,41,-99.99,,,0.00,weatherlink.com 1.10,2013-05-01 23:49:00,
2013-05-01 20:04:00,55.9,34.0,25.00,SE,141,0.0,-999.0,44,-99.99,,,0.00,weatherlink.com 1.10,2013-05-02 00:04:00,
2013-05-01 20:19:00,54.5,33.0,25.00,SE,141,0.0,-999.0,45,-99.99,,,0.00,weatherlink.com 1.10,2013-05-02 00:19:00,
2013-05-01 20:34:00,53.1,33.0,25.00,SE,141,0.0,-999.0,47,-99.99,,,0.00,weatherlink.com 1.10,2013-05-02 00:34:00,
2013-05-01 20:49:00,52.1,33.0,25.00,SE,141,0.0,-999.0,48,-99.99,,,0.00,weatherlink.com 1.10,2013-05-02 00:49:00,
2013-05-01 21:04:00,51.4,34.0,25.00,SE,141,0.0,-999.0,52,-99.99,,,0.00,weatherlink.com 1.10,2013-05-02 01:04:00,
2013-05-01 21:19:00,50.2,34.0,25.00,SE,141,0.0,-999.0,55,-99.99,,,0.00,weatherlink.com 1.10,2013-05-02 01:19:00,
2013-05-01 21:34:00,49.2,34.0,25.00,SE,141,0.0,-999.0,56,-99.99,,,0.00,weatherlink.com 1.10,2013-05-02 01:34:00,
2013-05-01 21:49:00,48.4,34.0,25.00,SE,141,0.0,-999.0,57,-99.99,,,0.00,weatherlink.com 1.10,2013-05-02 01:49:00,
2013-05-01 22:04:00,47.7,33.0,25.00,SE,141,0.0,-999.0,58,-99.99,,,0.00,weatherlink.com 1.10,2013-05-02 02:04:00,
2013-05-01 22:19:00,46.9,34.0,25.00,SE,141,0.0,-999.0,61,-99.99,,,0.00,weatherlink.com 1.10,2013-05-02 02:19:00,
2013-05-01 22:34:00,46.0,33.0,25.00,SE,141,0.0,-999.0,62,-99.99,,,0.00,weatherlink.com 1.10,2013-05-02 02:34:00,
2013-05-01 22:49:00,45.6,34.0,25.00,SE,141,0.0,-999.0,63,-99.99,,,0.00,weatherlink.com 1.10,2013-05-02 02:49:00,
2013-05-01 23:04:00,44.9,34.0,25.00,SE,141,0.0,-999.0,65,-99.99,,,0.00,weatherlink.com 1.10,2013-05-02 03:04:00,
2013-05-01 23:19:00,44.3,34.0,25.00,SE,141,0.0,-999.0,66,-99.99,,,0.00,weatherlink.com 1.10,2013-05-02 03:19:00,
2013-05-01 23:34:00,43.8,33.0,25.00,SE,141,0.0,-999.0,67,-99.99,,,0.00,weatherlink.com 1.10,2013-05-02 03:34:00,
2013-05-01 23:49:00,43.4,33.0,25.00,SE,141,0.0,-999.0,67,-99.99,,,0.00,weatherlink.com 1.10,2013-05-02 03:49:00,